Hourly Weather Dumfries

Today, 9 August, Sunday

Time Temperature Precipitation Wind Pressure Humidity
00:00 +12°C° 0 mm 2 mps 766 mmHg 91%
01:00 +10°C° 0 mm 2 mps 766 mmHg 91%
02:00 +10°C° 0 mm 2 mps 765 mmHg 91%
03:00 +11°C° 0 mm 1 mps 765 mmHg 92%
04:00 +10°C° 0 mm 2 mps 765 mmHg 91%
05:00 +10°C° 0 mm 2 mps 765 mmHg 90%
06:00 +12°C° 0 mm 2 mps 765 mmHg 90%
07:00 +13°C° 0 mm 2 mps 765 mmHg 84%
08:00 +14°C° 0 mm 3 mps 765 mmHg 79%
09:00 +16°C° 0 mm 3 mps 765 mmHg 73%
10:00 +17°C° 0 mm 3 mps 765 mmHg 71%
11:00 +18°C° 0 mm 4 mps 764 mmHg 68%
12:00 +19°C° 0 mm 4 mps 764 mmHg 66%
13:00 +19°C° 0 mm 4 mps 764 mmHg 67%
14:00 +19°C° 0 mm 4 mps 764 mmHg 67%
15:00 +19°C° 0 mm 4 mps 763 mmHg 68%
16:00 +19°C° 0 mm 4 mps 763 mmHg 71%
17:00 +18°C° 0 mm 3 mps 763 mmHg 74%
18:00 +17°C° 0 mm 3 mps 763 mmHg 76%
19:00 +16°C° 0 mm 3 mps 763 mmHg 82%
20:00 +14°C° 0 mm 2 mps 763 mmHg 87%
21:00 +13°C° 0 mm 2 mps 763 mmHg 93%
22:00 +12°C° 0 mm 2 mps 763 mmHg 93%
23:00 +12°C° 0 mm 2 mps 762 mmHg 94%

Tomorrow, 10 August, Monday

Time Temperature Precipitation Wind Pressure Humidity
00:00 +12°C° 0 mm 2 mps 762 mmHg 95%
01:00 +10°C° 0 mm 2 mps 762 mmHg 95%
02:00 +10°C° 0 mm 2 mps 762 mmHg 95%
03:00 +10°C° 0 mm 2 mps 762 mmHg 94%
04:00 +10°C° 0 mm 2 mps 762 mmHg 93%
05:00 +12°C° 0 mm 2 mps 762 mmHg 92%
06:00 +12°C° 0 mm 2 mps 761 mmHg 91%
07:00 +14°C° 0 mm 2 mps 761 mmHg 88%
08:00 +15°C° 0 mm 2 mps 762 mmHg 86%
09:00 +16°C° 0 mm 2 mps 762 mmHg 83%
10:00 +17°C° 0.2 mm 3 mps 761 mmHg 82%
11:00 +18°C° 0.2 mm 3 mps 761 mmHg 81%
12:00 +19°C° 0.2 mm 3 mps 761 mmHg 80%
13:00 +19°C° 0.3 mm 3 mps 761 mmHg 81%
14:00 +19°C° 0.3 mm 3 mps 761 mmHg 81%
15:00 +19°C° 0.3 mm 3 mps 761 mmHg 81%
16:00 +19°C° 0.1 mm 2 mps 761 mmHg 83%
17:00 +18°C° 0.1 mm 2 mps 761 mmHg 84%
18:00 +18°C° 0.1 mm 2 mps 760 mmHg 85%
19:00 +17°C° 0.3 mm 2 mps 761 mmHg 88%
20:00 +16°C° 0.3 mm 2 mps 761 mmHg 90%
21:00 +15°C° 0.3 mm 2 mps 761 mmHg 93%
22:00 +15°C° 0.2 mm 2 mps 761 mmHg 93%
23:00 +15°C° 0.2 mm 2 mps 761 mmHg 93%

Day after tomorrow, 11 August, Tuesday

Time Temperature Precipitation Wind Pressure Humidity
00:00 +15°C° 0.2 mm 2 mps 760 mmHg 94%
01:00 +15°C° 0.8 mm 2 mps 760 mmHg 94%
02:00 +15°C° 0.8 mm 2 mps 760 mmHg 95%
03:00 +15°C° 0.8 mm 2 mps 760 mmHg 95%
04:00 +15°C° 0.5 mm 2 mps 760 mmHg 95%
05:00 +15°C° 0.5 mm 2 mps 759 mmHg 95%
06:00 +15°C° 0.5 mm 2 mps 759 mmHg 95%
07:00 +16°C° 0.4 mm 2 mps 759 mmHg 94%
08:00 +16°C° 0.4 mm 2 mps 759 mmHg 94%
09:00 +17°C° 0.4 mm 2 mps 759 mmHg 93%
10:00 +18°C° 0 mm 2 mps 759 mmHg 91%
11:00 +19°C° 0 mm 2 mps 759 mmHg 88%
12:00 +20°C° 0 mm 2 mps 759 mmHg 86%
13:00 +21°C° 0 mm 2 mps 759 mmHg 86%
14:00 +21°C° 0 mm 2 mps 758 mmHg 86%
15:00 +22°C° 0 mm 1 mps 758 mmHg 87%
16:00 +22°C° 0 mm 1 mps 758 mmHg 88%
17:00 +22°C° 0 mm 1 mps 758 mmHg 89%
18:00 +21°C° 0 mm 1 mps 758 mmHg 91%
19:00 +21°C° 0 mm 1 mps 758 mmHg 92%
20:00 +20°C° 0 mm 1 mps 758 mmHg 94%
21:00 +17°C° 0 mm 0 mps 758 mmHg 96%
22:00 +17°C° 0 mm 0 mps 758 mmHg 97%
23:00 +17°C° 0 mm 0 mps 758 mmHg 97%

12 August, Wednesday

Time Temperature Precipitation Wind Pressure Humidity
00:00 +17°C° 0 mm 0 mps 758 mmHg 97%
01:00 +17°C° 0 mm 0 mps 758 mmHg 98%
02:00 +17°C° 0 mm 0 mps 758 mmHg 98%
03:00 +17°C° 0 mm 0 mps 758 mmHg 98%
04:00 +17°C° 0 mm 0 mps 757 mmHg 98%
05:00 +17°C° 0 mm 0 mps 757 mmHg 98%
06:00 +17°C° 0 mm 0 mps 757 mmHg 97%
07:00 +18°C° 0 mm 0 mps 757 mmHg 96%
08:00 +18°C° 0 mm 0 mps 757 mmHg 94%
09:00 +19°C° 0 mm 0 mps 757 mmHg 93%
10:00 +22°C° 0.1 mm 1 mps 757 mmHg 90%
11:00 +22°C° 0.1 mm 1 mps 757 mmHg 87%
12:00 +23°C° 0.1 mm 1 mps 757 mmHg 84%
13:00 +24°C° 0.1 mm 1 mps 757 mmHg 81%
14:00 +24°C° 0.1 mm 1 mps 757 mmHg 78%
15:00 +24°C° 0.1 mm 2 mps 757 mmHg 76%
16:00 +24°C° 0.1 mm 2 mps 757 mmHg 78%
17:00 +23°C° 0.1 mm 1 mps 757 mmHg 80%
18:00 +23°C° 0.1 mm 1 mps 757 mmHg 83%
19:00 +21°C° 0 mm 1 mps 757 mmHg 86%
20:00 +20°C° 0 mm 1 mps 757 mmHg 88%
21:00 +19°C° 0 mm 1 mps 757 mmHg 91%
22:00 +18°C° 0.2 mm 1 mps 757 mmHg 92%
23:00 +18°C° 0.2 mm 1 mps 756 mmHg 93%

13 August, Thursday

Time Temperature Precipitation Wind Pressure Humidity
00:00 +16°C° 0.2 mm 1 mps 756 mmHg 93%
01:00 +16°C° 0.9 mm 1 mps 756 mmHg 94%
02:00 +16°C° 0.9 mm 1 mps 755 mmHg 94%
03:00 +16°C° 0.9 mm 1 mps 755 mmHg 95%
04:00 +15°C° 0.5 mm 1 mps 755 mmHg 94%
05:00 +15°C° 0.5 mm 1 mps 754 mmHg 94%
06:00 +15°C° 0.5 mm 1 mps 754 mmHg 94%
07:00 +16°C° 0.1 mm 1 mps 754 mmHg 91%
08:00 +17°C° 0.1 mm 2 mps 754 mmHg 88%
09:00 +17°C° 0.1 mm 2 mps 754 mmHg 85%
10:00 +18°C° 0.1 mm 2 mps 754 mmHg 82%
11:00 +20°C° 0.1 mm 1 mps 754 mmHg 80%
12:00 +21°C° 0.1 mm 1 mps 754 mmHg 77%
13:00 +21°C° 0.5 mm 1 mps 754 mmHg 78%
14:00 +21°C° 0.5 mm 1 mps 754 mmHg 78%
15:00 +20°C° 0.5 mm 2 mps 753 mmHg 79%
16:00 +19°C° 0.6 mm 2 mps 753 mmHg 82%
17:00 +18°C° 0.6 mm 2 mps 753 mmHg 86%
18:00 +18°C° 0.6 mm 2 mps 753 mmHg 89%
19:00 +18°C° 0.6 mm 1 mps 753 mmHg 91%
20:00 +16°C° 0.6 mm 1 mps 754 mmHg 93%
21:00 +15°C° 0.6 mm 1 mps 754 mmHg 96%
22:00 +15°C° 0.8 mm 1 mps 754 mmHg 96%
23:00 +15°C° 0.8 mm 1 mps 754 mmHg 96%

14 August, Friday

Time Temperature Precipitation Wind Pressure Humidity
00:00 +14°C° 0.8 mm 0 mps 754 mmHg 96%
01:00 +14°C° 1.7 mm 0 mps 754 mmHg 96%
02:00 +14°C° 1.7 mm 0 mps 754 mmHg 96%
03:00 +14°C° 1.7 mm 0 mps 753 mmHg 96%
04:00 +14°C° 1.6 mm 0 mps 754 mmHg 96%
05:00 +14°C° 1.6 mm 0 mps 754 mmHg 96%
06:00 +14°C° 1.6 mm 0 mps 754 mmHg 96%
07:00 +14°C° 0.4 mm 0 mps 754 mmHg 95%
08:00 +14°C° 0.4 mm 0 mps 754 mmHg 93%
09:00 +14°C° 0.4 mm 0 mps 754 mmHg 92%
10:00 +15°C° 0.2 mm 0 mps 754 mmHg 89%
11:00 +15°C° 0.2 mm 0 mps 755 mmHg 86%
12:00 +16°C° 0.2 mm 0 mps 755 mmHg 84%
13:00 +16°C° 0.1 mm 0 mps 755 mmHg 82%
14:00 +17°C° 0.1 mm 0 mps 755 mmHg 80%
15:00 +17°C° 0.1 mm 0 mps 755 mmHg 79%
16:00 +17°C° 0.2 mm 0 mps 755 mmHg 81%
17:00 +18°C° 0.2 mm 1 mps 755 mmHg 83%
18:00 +18°C° 0.2 mm 1 mps 755 mmHg 85%
19:00 +15°C° 0 mm 0 mps 756 mmHg 87%
20:00 +15°C° 0 mm 0 mps 756 mmHg 88%
21:00 +14°C° 0 mm 0 mps 756 mmHg 89%
22:00 +14°C° 0 mm 0 mps 756 mmHg 90%
23:00 +14°C° 0 mm 0 mps 757 mmHg 90%
Show more